TimeCDT,TemperatureF,Dew PointF,Humidity,Sea Level PressureIn,VisibilityMPH,Wind Direction,Wind SpeedMPH,Gust SpeedMPH,PrecipitationIn,Events,Conditions,WindDirDegrees,DateUTC
12:53 AM,73.9,71.1,91,29.97,10.0,NNE,3.5,-,N/A,,Clear,30,2013-08-17 05:53:00
1:53 AM,73.0,72.0,96,29.95,9.0,NE,3.5,-,N/A,,Clear,40,2013-08-17 06:53:00
2:53 AM,73.9,72.0,93,29.94,10.0,NE,5.8,-,N/A,,Clear,50,2013-08-17 07:53:00
3:53 AM,73.0,71.1,93,29.94,9.0,ENE,4.6,-,N/A,,Clear,70,2013-08-17 08:53:00
4:53 AM,73.0,71.1,93,29.94,9.0,NNE,4.6,-,N/A,,Clear,30,2013-08-17 09:53:00
5:53 AM,72.0,71.1,97,29.95,10.0,Calm,Calm,-,N/A,,Clear,0,2013-08-17 10:53:00
6:53 AM,71.1,70.0,96,29.95,9.0,Calm,Calm,-,N/A,,Clear,0,2013-08-17 11:53:00
7:53 AM,73.9,71.1,91,29.96,10.0,Calm,Calm,-,N/A,,Clear,0,2013-08-17 12:53:00
8:53 AM,77.0,71.1,82,29.97,10.0,Variable,3.5,-,N/A,,Clear,0,2013-08-17 13:53:00
9:53 AM,80.1,72.0,76,29.98,10.0,ENE,5.8,-,N/A,,Clear,60,2013-08-17 14:53:00
10:37 AM,80.6,71.6,74,29.98,10.0,East,4.6,-,N/A,,Mostly Cloudy,80,2013-08-17 15:37:00
10:53 AM,81.0,73.0,77,29.98,10.0,NE,6.9,-,N/A,,Mostly Cloudy,40,2013-08-17 15:53:00
11:29 AM,82.4,71.6,70,29.98,10.0,North,5.8,-,N/A,,Scattered Clouds,10,2013-08-17 16:29:00
11:53 AM,84.9,72.0,65,29.97,10.0,ENE,8.1,-,N/A,,Scattered Clouds,70,2013-08-17 16:53:00
12:01 PM,84.2,71.6,66,29.97,10.0,ENE,4.6,-,N/A,,Mostly Cloudy,70,2013-08-17 17:01:00
12:11 PM,84.2,71.6,66,29.97,10.0,North,8.1,-,N/A,,Scattered Clouds,10,2013-08-17 17:11:00
12:53 PM,86.0,72.0,63,29.95,10.0,NNE,6.9,-,N/A,,Mostly Cloudy,20,2013-08-17 17:53:00
1:53 PM,87.1,73.0,63,29.94,10.0,NNE,6.9,-,N/A,,Mostly Cloudy,20,2013-08-17 18:53:00
2:53 PM,84.9,72.0,65,29.93,10.0,ENE,11.5,-,N/A,,Mostly Cloudy,60,2013-08-17 19:53:00
3:53 PM,86.0,72.0,63,29.92,10.0,ENE,13.8,-,N/A,,Partly Cloudy,70,2013-08-17 20:53:00
4:53 PM,84.0,71.1,65,29.92,10.0,East,13.8,19.6,N/A,,Mostly Cloudy,80,2013-08-17 21:53:00
5:53 PM,82.9,72.0,69,29.93,10.0,East,11.5,-,N/A,,Mostly Cloudy,100,2013-08-17 22:53:00
6:00 PM,82.4,73.4,74,29.93,10.0,East,10.4,-,N/A,,Mostly Cloudy,100,2013-08-17 23:00:00
6:53 PM,77.0,72.0,84,29.93,10.0,ENE,5.8,-,0.00,,Mostly Cloudy,60,2013-08-17 23:53:00
7:53 PM,78.1,70.0,76,29.95,10.0,NE,6.9,-,N/A,,Overcast,50,2013-08-18 00:53:00
8:53 PM,75.9,70.0,82,29.96,10.0,ENE,5.8,-,N/A,,Overcast,60,2013-08-18 01:53:00
9:53 PM,75.0,71.1,87,29.97,10.0,ENE,3.5,-,N/A,,Clear,70,2013-08-18 02:53:00
10:53 PM,73.9,70.0,87,29.97,10.0,NNE,3.5,-,N/A,,Partly Cloudy,30,2013-08-18 03:53:00
11:53 PM,73.0,71.1,93,29.97,10.0,NNE,4.6,-,N/A,,Clear,20,2013-08-18 04:53:00